When you browse on this site, cookies collect data to enhance your experience and personalize the content and advertising you see.
Visit our Privacy Policy to learn more. By continuing to use the site, you agree to this use of cookies and data.

Stündliche Wetter Chaschuri

Heute, 14 Juli, Dienstag

Zeit Temperatur Niederschläge Wind Luftdruck Luftfeuchtigkeit
00:00 +11°C° 0 mm 0 m/S 611 mmHg 97%
01:00 +11°C° 0 mm 0 m/S 611 mmHg 97%
02:00 +10°C° 0 mm 0 m/S 611 mmHg 98%
03:00 +11°C° 0 mm 1 m/S 611 mmHg 98%
04:00 +11°C° 0 mm 1 m/S 611 mmHg 97%
05:00 +12°C° 0 mm 1 m/S 612 mmHg 97%
06:00 +12°C° 0 mm 1 m/S 612 mmHg 96%
07:00 +13°C° 0 mm 1 m/S 613 mmHg 90%
08:00 +15°C° 0 mm 1 m/S 613 mmHg 84%
09:00 +16°C° 0 mm 1 m/S 614 mmHg 78%
10:00 +18°C° 0.1 mm 1 m/S 614 mmHg 76%
11:00 +18°C° 0.1 mm 2 m/S 614 mmHg 75%
12:00 +18°C° 0.1 mm 2 m/S 615 mmHg 73%
13:00 +19°C° 0.4 mm 2 m/S 615 mmHg 74%
14:00 +19°C° 0.4 mm 2 m/S 615 mmHg 75%
15:00 +19°C° 0.4 mm 2 m/S 615 mmHg 77%
16:00 +18°C° 0.4 mm 2 m/S 615 mmHg 80%
17:00 +17°C° 0.4 mm 2 m/S 615 mmHg 83%
18:00 +17°C° 0.4 mm 2 m/S 615 mmHg 86%
19:00 +15°C° 0.1 mm 2 m/S 614 mmHg 89%
20:00 +14°C° 0.1 mm 1 m/S 614 mmHg 93%
21:00 +12°C° 0.1 mm 1 m/S 614 mmHg 97%
22:00 +12°C° 0 mm 1 m/S 614 mmHg 97%
23:00 +12°C° 0 mm 1 m/S 614 mmHg 97%

Morgen, 15 Juli, Mittwoch

Zeit Temperatur Niederschläge Wind Luftdruck Luftfeuchtigkeit
00:00 +11°C° 0 mm 0 m/S 615 mmHg 97%
01:00 +11°C° 0 mm 0 m/S 615 mmHg 97%
02:00 +11°C° 0 mm 0 m/S 615 mmHg 97%
03:00 +11°C° 0 mm 0 m/S 615 mmHg 96%
04:00 +11°C° 0 mm 0 m/S 615 mmHg 95%
05:00 +11°C° 0 mm 0 m/S 615 mmHg 94%
06:00 +11°C° 0 mm 0 m/S 615 mmHg 92%
07:00 +13°C° 0 mm 0 m/S 616 mmHg 85%
08:00 +15°C° 0 mm 0 m/S 616 mmHg 78%
09:00 +19°C° 0 mm 1 m/S 617 mmHg 71%
10:00 +20°C° 0.1 mm 1 m/S 617 mmHg 67%
11:00 +21°C° 0.1 mm 1 m/S 617 mmHg 63%
12:00 +23°C° 0.1 mm 1 m/S 617 mmHg 60%
13:00 +22°C° 0.4 mm 1 m/S 617 mmHg 61%
14:00 +21°C° 0.4 mm 2 m/S 617 mmHg 63%
15:00 +21°C° 0.4 mm 2 m/S 617 mmHg 64%
16:00 +20°C° 0.6 mm 2 m/S 617 mmHg 70%
17:00 +19°C° 0.6 mm 2 m/S 616 mmHg 76%
18:00 +18°C° 0.6 mm 2 m/S 616 mmHg 83%
19:00 +18°C° 0.3 mm 1 m/S 616 mmHg 86%
20:00 +15°C° 0.3 mm 1 m/S 616 mmHg 90%
21:00 +14°C° 0.3 mm 1 m/S 615 mmHg 94%
22:00 +14°C° 0 mm 1 m/S 615 mmHg 94%
23:00 +12°C° 0 mm 0 m/S 615 mmHg 94%

übermorgen, 16 Juli, Donnerstag

Zeit Temperatur Niederschläge Wind Luftdruck Luftfeuchtigkeit
00:00 +12°C° 0 mm 0 m/S 615 mmHg 95%
01:00 +12°C° 0 mm 0 m/S 615 mmHg 94%
02:00 +12°C° 0 mm 0 m/S 615 mmHg 94%
03:00 +12°C° 0 mm 0 m/S 614 mmHg 93%
04:00 +12°C° 0 mm 0 m/S 614 mmHg 92%
05:00 +12°C° 0 mm 0 m/S 614 mmHg 91%
06:00 +13°C° 0 mm 0 m/S 615 mmHg 90%
07:00 +15°C° 0 mm 1 m/S 615 mmHg 84%
08:00 +18°C° 0 mm 1 m/S 615 mmHg 78%
09:00 +20°C° 0 mm 1 m/S 616 mmHg 71%
10:00 +21°C° 0.1 mm 1 m/S 616 mmHg 68%
11:00 +22°C° 0.1 mm 1 m/S 616 mmHg 64%
12:00 +23°C° 0.1 mm 1 m/S 616 mmHg 61%
13:00 +23°C° 0.3 mm 2 m/S 616 mmHg 61%
14:00 +23°C° 0.3 mm 2 m/S 616 mmHg 62%
15:00 +23°C° 0.3 mm 2 m/S 615 mmHg 63%
16:00 +21°C° 0.4 mm 2 m/S 615 mmHg 69%
17:00 +20°C° 0.4 mm 2 m/S 615 mmHg 75%
18:00 +20°C° 0.4 mm 1 m/S 614 mmHg 82%
19:00 +19°C° 0.1 mm 1 m/S 614 mmHg 85%
20:00 +16°C° 0.1 mm 1 m/S 613 mmHg 89%
21:00 +14°C° 0.1 mm 1 m/S 613 mmHg 93%
22:00 +14°C° 0 mm 1 m/S 613 mmHg 92%
23:00 +13°C° 0 mm 1 m/S 613 mmHg 92%

17 Juli, Freitag

Zeit Temperatur Niederschläge Wind Luftdruck Luftfeuchtigkeit
00:00 +13°C° 0 mm 1 m/S 612 mmHg 92%
01:00 +13°C° 0.1 mm 1 m/S 612 mmHg 91%
02:00 +13°C° 0.1 mm 1 m/S 612 mmHg 91%
03:00 +12°C° 0.1 mm 1 m/S 612 mmHg 91%
04:00 +13°C° 0.2 mm 1 m/S 612 mmHg 91%
05:00 +13°C° 0.2 mm 1 m/S 612 mmHg 92%
06:00 +14°C° 0.2 mm 2 m/S 612 mmHg 92%
07:00 +16°C° 0.2 mm 1 m/S 613 mmHg 86%
08:00 +19°C° 0.2 mm 1 m/S 613 mmHg 79%
09:00 +20°C° 0.2 mm 1 m/S 614 mmHg 72%
10:00 +20°C° 1.2 mm 2 m/S 614 mmHg 71%
11:00 +21°C° 1.2 mm 2 m/S 615 mmHg 69%
12:00 +23°C° 1.2 mm 2 m/S 615 mmHg 68%
13:00 +23°C° 1.7 mm 2 m/S 615 mmHg 70%
14:00 +21°C° 1.7 mm 2 m/S 614 mmHg 73%
15:00 +21°C° 1.7 mm 2 m/S 614 mmHg 76%
16:00 +20°C° 1.1 mm 2 m/S 614 mmHg 79%
17:00 +20°C° 1.1 mm 2 m/S 614 mmHg 83%
18:00 +19°C° 1.1 mm 2 m/S 614 mmHg 86%
19:00 +18°C° 0.2 mm 1 m/S 614 mmHg 88%
20:00 +16°C° 0.2 mm 1 m/S 613 mmHg 89%
21:00 +14°C° 0.2 mm 1 m/S 613 mmHg 91%
22:00 +14°C° 0 mm 1 m/S 613 mmHg 89%
23:00 +13°C° 0 mm 1 m/S 613 mmHg 88%

18 Juli, Samstag

Zeit Temperatur Niederschläge Wind Luftdruck Luftfeuchtigkeit
00:00 +13°C° 0 mm 1 m/S 613 mmHg 86%
01:00 +13°C° 0 mm 1 m/S 613 mmHg 86%
02:00 +12°C° 0 mm 1 m/S 613 mmHg 85%
03:00 +12°C° 0 mm 1 m/S 613 mmHg 84%
04:00 +13°C° 0 mm 1 m/S 613 mmHg 84%
05:00 +13°C° 0 mm 1 m/S 613 mmHg 84%
06:00 +13°C° 0 mm 1 m/S 613 mmHg 84%
07:00 +16°C° 0 mm 1 m/S 614 mmHg 76%
08:00 +20°C° 0 mm 1 m/S 615 mmHg 68%
09:00 +20°C° 0 mm 0 m/S 616 mmHg 59%
10:00 +24°C° 0 mm 1 m/S 617 mmHg 56%
11:00 +25°C° 0 mm 1 m/S 617 mmHg 52%
12:00 +27°C° 0 mm 1 m/S 617 mmHg 48%
13:00 +27°C° 0.1 mm 1 m/S 617 mmHg 48%
14:00 +27°C° 0.1 mm 1 m/S 617 mmHg 48%
15:00 +27°C° 0.1 mm 2 m/S 617 mmHg 48%
16:00 +26°C° 0.1 mm 2 m/S 617 mmHg 55%
17:00 +25°C° 0.1 mm 1 m/S 617 mmHg 61%
18:00 +24°C° 0.1 mm 1 m/S 616 mmHg 68%
19:00 +22°C° 0 mm 1 m/S 616 mmHg 73%
20:00 +20°C° 0 mm 1 m/S 616 mmHg 78%
21:00 +18°C° 0 mm 1 m/S 615 mmHg 83%
22:00 +16°C° 0 mm 2 m/S 615 mmHg 83%
23:00 +16°C° 0 mm 2 m/S 615 mmHg 84%

19 Juli, Sonntag

Zeit Temperatur Niederschläge Wind Luftdruck Luftfeuchtigkeit
00:00 +15°C° 0 mm 2 m/S 615 mmHg 84%
01:00 +15°C° 0 mm 2 m/S 615 mmHg 84%
02:00 +15°C° 0 mm 2 m/S 615 mmHg 83%
03:00 +14°C° 0 mm 2 m/S 614 mmHg 82%
04:00 +15°C° 0 mm 2 m/S 615 mmHg 82%
05:00 +15°C° 0 mm 2 m/S 615 mmHg 82%
06:00 +15°C° 0 mm 2 m/S 615 mmHg 82%
07:00 +18°C° 0 mm 2 m/S 616 mmHg 75%
08:00 +21°C° 0 mm 1 m/S 616 mmHg 68%
09:00 +24°C° 0 mm 1 m/S 617 mmHg 61%
10:00 +25°C° 0 mm 1 m/S 617 mmHg 57%
11:00 +27°C° 0 mm 1 m/S 618 mmHg 52%
12:00 +29°C° 0 mm 1 m/S 618 mmHg 48%
13:00 +29°C° 0 mm 1 m/S 618 mmHg 47%
14:00 +29°C° 0 mm 1 m/S 618 mmHg 46%
15:00 +29°C° 0 mm 1 m/S 617 mmHg 46%
16:00 +28°C° 0.1 mm 1 m/S 617 mmHg 55%
17:00 +26°C° 0.1 mm 1 m/S 616 mmHg 64%
18:00 +24°C° 0.1 mm 1 m/S 615 mmHg 73%
19:00 +22°C° 0.1 mm 1 m/S 615 mmHg 76%
20:00 +20°C° 0.1 mm 1 m/S 614 mmHg 79%
21:00 +19°C° 0.1 mm 1 m/S 614 mmHg 82%
22:00 +18°C° 0 mm 1 m/S 614 mmHg 83%
23:00 +16°C° 0 mm 1 m/S 613 mmHg 83%
Mehr zeigen